sat.trackr.live / text

‹ back to catalog

STARLINK-2285

NORAD 48019 · 2021-024AU

PAYLOAD ACTIVE UNKNOWN

§ Identity

Operator
Country
US
Launch date
2021-03-24
Launch site
AFETR
Launch vehicle
Mass (kg)
RCS (m²)

Purposes: comms

External: N2YO · Heavens-Above · Gunter

§ Orbital elements

Epoch: 2026-09-03T14:29:49.913088Z

Period
94.01 min
Inclination
53.1591°
Eccentricity
0.0001339
Mean motion
15.31702758 rev/d
Perigee alt
469.8 km
Apogee alt
471.6 km
Semi-major
6,848.9 km
B*
1.2102e-4
RAAN
198.9199°
Arg perigee
75.7900°
Mean anomaly
284.3250°
Rev number
30,218

§ Raw data

STARLINK-22851 48019U 21024AU  26246.60404992  .00003392  00000+0  12102-3 0  99902 48019  53.1591 198.9199 0001339  75.7900 284.3250 15.31702758302185

JSON: /api/v1/satellites/48019 · /tle

For live sub-satellite position, see the globe view (requires WebGL).

§ Visibility from observer

Set your observer location to see the next 7 days of passes ≥ 10°. The values pass through the URL so the page stays shareable.

No JS? Fill the form by hand. The geolocation button needs JavaScript.